Change the Weather History Date:

Monday, April 15, 2013

  Actual Average (PASK) Record (PASK)
Temperature  
Mean Temperature 12 °F -  
Max Temperature 1 °F 22 °F 35 °F (1998)
Min Temperature 0 °F 7 °F -11 °F (2013)
Degree Days  
Heating Degree Days 53    
Moisture  
Dew Point -1 °F    
Average Humidity 60    
Maximum Humidity 76    
Minimum Humidity 37    
Precipitation  
Precipitation 0.00 in - - ()
Sea Level Pressure  
Sea Level Pressure 30.92 in    
Wind  
Wind Speed 3 mph (SSW)    
Max Wind Speed 10 mph    
Max Gust Speed -    
Visibility 10 miles    
Events      
Averages and records for this station are not official NWS values.
T = Trace of Precipitation, MM = Missing Value Source: NWS Daily Summary

Daily Weather History Graph

Daily Weather History Graph

Search for Another Location

Airport or City:

Trip Planner

Search our weather history database for the weather conditions in past years. The results will help you decide how hot, cold, wet, or windy it might be!

Date:

Astronomy

Apr. 15, 2013 Rise Set
Actual Time 6:54 AM AKDT 10:31 PM AKDT
Civil Twilight 5:49 AM AKDT 11:37 PM AKDT
Nautical Twilight 3:53 AM AKDT 1:41 AM AKDT
Astronomical Twilight Sun does not rise Sun does not rise
Moon 8:49 AM AKDT (4/15) 4:32 AM AKDT (4/15)
Length of Visible Light 17h 48m
Length of Day
15h 37m
Waxing Crescent, 26% of the Moon is Illuminated
Apr 15
Waxing Crescent
Apr 18
First Quarter
Apr 25
Full
May 2
Last Quarter
May 9
New

Hourly Weather History & Observations

Time (AKDT) Temp. Windchill Dew Point Humidity Pressure Visibility Wind Dir Wind Speed Gust Speed Precip Events Conditions
12:01 AM 12.0 °F 5.9 °F 3.0 °F 67% 30.92 in 10.0 mi NNW 3.5 mph - N/A   Clear
1:01 AM 10.0 °F - 1.0 °F 67% 30.93 in 10.0 mi Calm Calm - N/A   Clear
2:01 AM 7.0 °F 0.1 °F -0.9 °F 70% 30.93 in 10.0 mi SW 3.5 mph - N/A   Clear
3:01 AM 6.1 °F - -0.9 °F 73% 30.94 in 10.0 mi Calm Calm - N/A   Clear
4:01 AM 5.0 °F - -0.9 °F 76% 30.94 in 10.0 mi Calm Calm - N/A   Clear
5:01 AM 3.9 °F - -2.0 °F 76% 30.95 in 10.0 mi Calm Calm - N/A   Clear
6:01 AM 1.9 °F - -4.0 °F 76% 30.95 in 10.0 mi Calm Calm - N/A   Clear
7:01 AM -0.9 °F -8.9 °F -7.1 °F 75% 30.96 in 10.0 mi SW 3.5 mph - N/A   Clear
8:01 AM -0.9 °F - -8.0 °F 72% 30.96 in 10.0 mi Calm Calm - N/A   Clear
9:01 AM -0.9 °F - -8.0 °F 72% 30.96 in 10.0 mi Calm Calm - N/A   Clear
10:01 AM 9.0 °F - -5.1 °F 53% 30.95 in 10.0 mi Calm Calm - N/A   Clear
11:01 AM 12.9 °F - -2.9 °F 49% 30.95 in 10.0 mi Calm Calm - N/A   Clear
12:01 PM 18.0 °F 12.7 °F -0.9 °F 44% 30.95 in 10.0 mi ESE 3.5 mph - N/A   Clear
1:01 PM 23.0 °F 17.0 °F -0.0 °F 37% 30.94 in 10.0 mi South 4.6 mph - N/A   Clear
2:01 PM 21.9 °F 17.2 °F 1.0 °F 40% 30.94 in 10.0 mi South 3.5 mph - N/A   Clear
3:01 PM 21.0 °F 13.4 °F 3.0 °F 46% 30.93 in 10.0 mi SSW 5.8 mph - N/A   Clear
4:01 PM 24.1 °F 17.0 °F 1.9 °F 38% 30.91 in 10.0 mi South 5.8 mph - N/A   Clear
5:01 PM 21.9 °F 14.5 °F 3.0 °F 44% 30.90 in 10.0 mi SW 5.8 mph - N/A   Clear
6:01 PM 17.1 °F 5.0 °F 3.9 °F 56% 30.89 in 10.0 mi SSW 10.4 mph - N/A   Clear
7:01 PM 17.1 °F 5.0 °F 3.9 °F 56% 30.88 in 10.0 mi SSW 10.4 mph - N/A   Clear
8:01 PM 16.0 °F 6.3 °F 3.9 °F 59% 30.86 in 10.0 mi SSW 6.9 mph - N/A   Clear
9:01 PM 14.0 °F 3.9 °F 3.0 °F 62% 30.85 in 10.0 mi SSW 6.9 mph - N/A   Clear
10:01 PM 10.9 °F - 1.0 °F 64% 30.85 in 10.0 mi Calm Calm - N/A   Clear
11:01 PM 6.1 °F -0.9 °F -0.9 °F 73% 30.84 in 10.0 mi SSW 3.5 mph - N/A   Clear